sat.trackr.live / text

‹ back to catalog

STARLINK-4763

NORAD 53805 · 2022-111AJ

PAYLOAD ACTIVE UNKNOWN

§ Identity

Operator
Country
US
Launch date
2022-09-11
Launch site
AFETR
Launch vehicle
Mass (kg)
RCS (m²)

Purposes: comms

External: N2YO · Heavens-Above · Gunter

§ Orbital elements

Epoch: 2026-09-20T05:10:12.608544Z

Period
94.01 min
Inclination
53.1585°
Eccentricity
0.0001317
Mean motion
15.31710377 rev/d
Perigee alt
469.8 km
Apogee alt
471.6 km
Semi-major
6,848.8 km
B*
1.0793e-4
RAAN
83.2759°
Arg perigee
90.0774°
Mean anomaly
270.0378°
Rev number
22,356

§ Raw data

STARLINK-47631 53805U 22111AJ  26263.21542371  .00002986  00000+0  10793-3 0  99992 53805  53.1585  83.2759 0001317  90.0774 270.0378 15.31710377223563

JSON: /api/v1/satellites/53805 · /tle

For live sub-satellite position, see the globe view (requires WebGL).

§ Visibility from observer

Set your observer location to see the next 7 days of passes ≥ 10°. The values pass through the URL so the page stays shareable.

No JS? Fill the form by hand. The geolocation button needs JavaScript.